Regional Weather Roundup
Issued by NWS Albany, NY

Home | Current Version | Previous Version | Graphics & Text | Print | Product List | Glossary On
Versions: 1 2 3 4 5 6 7 8 9 10 11 12 13 14 15 16 17 18 19 20 21 22 23 24 25 26 27
000
ASUS41 KALY 302310
RWRALY

NEW YORK STATE HOURLY WEATHER ROUNDUP
NATIONAL WEATHER SERVICE ALBANY NY
700 PM EDT TUE AUG 30 2016

NOTE: "FAIR" INDICATES FEW OR NO CLOUDS BELOW 12,000 FEET WITH NO
SIGNIFICANT WEATHER AND/OR NO OBSTRUCTIONS TO VISIBILITY.

NYZ032-033-038>043-046>054-057>066-NYZ062>081-082-084-310000-
EAST


CITY           SKY/WX    TMP DP  RH WIND       PRES   REMARKS
ALBANY         PTCLDY    78  56  46 NW5       30.04F
GLENS FALLS    CLEAR     76  59  55 S7        30.02S
POUGHKEEPSIE   CLEAR     79  59  50 VRB3      30.02F
MONTGOMERY     CLEAR     76  63  64 SW3       30.04F
WHITE PLAINS   PTCLDY    77  63  61 CALM      30.05S
ISLIP          MOCLDY    76  62  62 S10       30.05F
NEW YORK CITY  MOCLDY    79  64  60 S15       30.04S
CENTRAL PARK   CLEAR     78  63  59 VRB3      30.07S
$$

NYZ005>009-017-018-044>046-055-056-310000-
CENTRAL


CITY           SKY/WX    TMP DP  RH WIND       PRES   REMARKS
FULTON         PTCLDY    74  64  71 CALM      30.04F
SYRACUSE       CLOUDY    78  57  48 SW3       30.04S
ROME           CLEAR     75  61  61 N3        30.06S
ELMIRA         CLOUDY    73  65  75 CALM      30.05S
BINGHAMTON     CLOUDY    73  56  54 SW3       30.10S
MONTICELLO     CLEAR     73  59  60 W3        30.10F
$$

NYZ026>034-041>043-087-310000-
NORTH


CITY           SKY/WX    TMP DP  RH WIND       PRES   REMARKS
WATERTOWN      PTCLDY    74  58  57 S6        30.02F
FORT DRUM      NOT AVBL
MASSENA        CLOUDY    73  61  65 SW6       30.00F
SARANAC LAKE   MOCLDY    70  57  63 W5        30.06S
PLATTSBURGH    CLOUDY    73  63  70 S3        30.00S
$$

NYZ001>004-010>016-019>021-085-310000-
WEST


CITY           SKY/WX    TMP DP  RH WIND       PRES   REMARKS
NIAGARA FALLS  MOCLDY    80  52  37 SW8       30.04F
BUFFALO        CLOUDY    77  57  50 SW8       30.06S
DUNKIRK        CLOUDY    75  61  61 SW3       30.07F
JAMESTOWN      CLOUDY    73  61  64 N5        30.11F
WELLSVILLE     MOCLDY    73  58  59 SW3       30.14S
ROCHESTER      MOCLDY    77  64  64 NE7       30.06R
PENN YAN       PTCLDY    79  58  48 W3        30.07S
$$

             KEY
       WCI = WIND CHILL INDEX
       VSB = VISIBILITY
       HX  = HEAT INDEX
$$




USA.gov is the U.S. government's official web portal to all federal, state and local government web resources and services.